User: anonymous   Login
Location: *
(48.4333°N, 5.0333°W)
Time: 18:01:56
(UTC+00:00)
Language:

SL-4 R/B - Orbit

View from above orbital plane
View from above orbital plane
View from above satellite
View from above satellite

Ground track
Ground track

The orbit data is extracted from the following two-line orbital elements,

1 39679U 14021B   20184.83702065 -.00000057 +00000-0 +15673-4 0  9997
2 39679 051.6171 036.0333 0172004 359.2893 000.7808 15.06435056341341
Epoch (UTC): 02 July 2020 20:05:18
Eccentricity: 0.0172004
inclination: 51.6171°
perigee height: 428 km
apogee height: 666 km
right ascension of ascending node: 36.0333°
argument of perigee: 359.2893°
revolutions per day: 15.06435056
mean anomaly at epoch: 0.7808°
orbit number at epoch: 34134

The dashed part of the orbit path shows where the satellite is in the earth's shadow,  

DLR